POPACS 3

Last updated on Mon Sep 21 2026 00:03:44 GMT+0000 (Coordinated Universal Time)

1 39270U 13055F 26262.96539421 .00007527 00000+0 17556-3 0 9999 2 39270 80.9996 126.2880 0546225 140.7045 223.5161 14.57504325652353
UTC large
Height (km)
Speed (km/s)
/
Latitude / Longitude
Inclination (degrees)
Orbital Period (minutes)
Azimuth
Elevation
Range (km)
Doppler Factor

Next 0 passes for location: London (51.5072 / 0.1276)

No passes found over London.
POPACS 3